[[{"header":{"parameterUnit":"m.s-1","parameterCategory":2,"la1":30.2991,"la2":30.254,"lo1":-89.0895,"lo2":-89.0444,"dy":0.0017,"dx":0.0017,"nx":28,"ny":28,"refTime":"2024-07-31T21:00:00:Z","depth":"0","parameterNumber":2,"parameterNumberName":"U-component_of_CURRENTS"},"data":[0,0,0,0,0,0,0,0,0,0,0,0,0,0,0,0,0,0,0,0,0,0,0,0,0,0,0,0,0,0,0,0,0,0,0,0,0,0,0,0,0,0,0,0,0,0,0,0,0,0,0,0,0,0,0,0,0,0,-0.1688,-0.1688,0,-0.171,-0.1711,-0.1711,-0.1616,-0.1613,-0.161,-0.1607,-0.1532,-0.1533,-0.1534,0,0,0,0,0,0,0,0,0,0,0,0,0,-0.1689,-0.1688,-0.1688,-0.1688,-0.1688,-0.171,-0.1711,-0.1711,-0.1616,-0.1613,-0.1609,-0.1606,-0.1532,-0.1533,-0.1534,0,0,0,0,0,0,0,0,0,0,0,0,0,-0.1698,-0.1688,-0.1688,-0.1642,-0.1638,-0.171,-0.1711,-0.1711,-0.1617,-0.1613,-0.1608,-0.1604,-0.1532,-0.1533,-0.1534,-0.1628,0,0,-0.1537,-0.1538,0,0,0,0,0,0,0,0,-0.1698,-0.1699,-0.1649,-0.1646,-0.1641,-0.1654,-0.1683,-0.1678,-0.1618,-0.1627,-0.1607,-0.1602,-0.1567,-0.1565,-0.1582,-0.1625,-0.1622,-0.1538,-0.1538,-0.1539,-0.1539,0,0,0,0,0,0,0,-0.1697,-0.1698,-0.1698,-0.1649,-0.1645,-0.1664,-0.166,-0.1683,-0.162,-0.1626,-0.1618,-0.162,-0.1563,-0.1581,-0.1579,-0.1621,-0.1538,-0.1538,-0.1539,-0.154,-0.1644,-0.1646,0,0,0,0,0,0,-0.169,-0.1697,-0.1697,-0.1698,-0.1658,-0.1667,-0.1662,-0.1656,-0.1622,-0.1613,-0.1624,-0.1616,-0.1582,-0.1578,-0.1576,-0.1608,-0.1539,-0.154,-0.154,-0.1642,-0.1644,-0.1647,0,0,0,0,0,0,-0.169,-0.169,-0.1696,-0.1698,-0.1699,-0.167,-0.1665,-0.1659,-0.1651,-0.1621,-0.161,-0.1618,-0.1578,-0.1574,-0.1583,-0.1607,-0.154,-0.1541,-0.1639,-0.1643,-0.1646,-0.1722,0,0,0,0,0,0,-0.169,-0.169,-0.168,-0.1697,-0.1699,-0.1702,-0.1669,-0.1662,-0.1659,-0.1648,-0.1615,-0.1604,-0.1574,-0.1582,-0.1584,-0.1607,-0.1542,-0.1637,-0.1641,-0.1645,-0.1717,-0.1728,-0.1737,0,0,0,0,0,-0.169,-0.1675,-0.168,-0.1679,-0.1687,-0.1702,-0.1704,-0.1672,-0.1663,-0.1652,-0.1647,-0.1604,-0.1608,-0.1586,-0.1588,-0.1611,-0.1635,-0.164,-0.1644,-0.1713,-0.1726,-0.1737,0,0,0,0,0,0,-0.1667,-0.1666,-0.1669,-0.1654,-0.1668,-0.1684,-0.1672,-0.1681,-0.1678,-0.1667,-0.1642,-0.1633,-0.1647,-0.1632,-0.1608,-0.1654,-0.1612,-0.1617,-0.1663,-0.1675,-0.1685,-0.1666,-0.1543,0,0,0,0,0,-0.1667,-0.1653,-0.1669,-0.1661,-0.1662,-0.1682,-0.1686,-0.1681,-0.1686,-0.1678,-0.167,-0.1667,-0.1682,-0.1675,-0.1678,-0.1718,-0.1675,-0.1732,-0.1742,-0.175,-0.1738,-0.1715,-0.172,-0.1662,-0.1662,-0.1662,0,0,-0.1658,-0.1657,-0.1649,-0.1656,-0.1663,-0.1692,-0.167,-0.1677,-0.1711,-0.1677,-0.1706,-0.1703,-0.1701,-0.173,-0.1735,-0.1711,-0.1747,-0.1756,-0.1763,-0.1746,-0.172,-0.1725,-0.173,-0.1666,-0.1665,-0.1664,0,0,-0.1655,-0.1634,-0.1633,-0.1648,-0.1664,-0.1685,-0.1689,-0.1716,-0.1718,-0.1767,-0.1753,-0.1761,-0.1789,-0.1786,-0.1793,-0.1867,-0.1802,-0.1874,-0.1905,-0.1884,-0.1888,-0.189,-0.1843,-0.184,-0.1876,-0.1876,-0.1876,0,-0.1648,-0.165,-0.1638,-0.1657,-0.1671,-0.1686,-0.1715,-0.1745,-0.1778,-0.1791,-0.1768,-0.1822,-0.1813,-0.1857,-0.1877,-0.1885,-0.1853,-0.1859,-0.1894,-0.1896,-0.1897,-0.1847,-0.1844,-0.188,-0.188,-0.1879,-0.1879,0,-0.1662,-0.1665,-0.1663,-0.1696,-0.1717,-0.173,-0.1777,-0.1803,-0.1823,-0.1851,-0.1885,-0.189,-0.1902,-0.1922,-0.1923,-0.1949,-0.1917,-0.1909,-0.1856,-0.1907,-0.1852,-0.1847,-0.1886,-0.1885,-0.1884,-0.1883,0,0,-0.1633,-0.1665,-0.1665,-0.1679,-0.1732,-0.1745,-0.1814,-0.1861,-0.1889,-0.1924,-0.1952,-0.1996,-0.1979,-0.1986,-0.1991,-0.1985,-0.1975,-0.1956,-0.1953,-0.1895,-0.1906,-0.1741,-0.1719,-0.1973,-0.1973,-0.1973,-0.1863,0,-0.1645,-0.1668,-0.1703,-0.1743,-0.1749,-0.1797,-0.1856,-0.1908,-0.194,-0.197,-0.1987,-0.201,-0.2013,-0.2014,-0.2014,-0.1986,-0.1965,-0.2003,-0.1877,-0.1873,-0.1708,-0.1709,-0.155,-0.1427,-0.1858,-0.1857,-0.1856,0,-0.1644,-0.1654,-0.1682,-0.1735,-0.1746,-0.1786,-0.1845,-0.1903,-0.1965,-0.199,-0.2018,-0.2028,-0.2044,-0.2028,-0.1987,-0.2011,-0.196,-0.1931,-0.1926,-0.1734,-0.1697,-0.1448,-0.14,-0.1506,-0.1847,-0.1848,-0.1849,0,-0.1583,-0.1639,-0.1649,-0.1665,-0.1737,-0.1763,-0.181,-0.1886,-0.1924,-0.1984,-0.1997,-0.2029,-0.2012,-0.1987,-0.1929,-0.1958,-0.1851,-0.1879,-0.1679,-0.1667,-0.1483,-0.1453,-0.1503,-0.1826,-0.1827,-0.1827,-0.1827,0,-0.1555,-0.1562,-0.1609,-0.1603,-0.1619,-0.1702,-0.1734,-0.1794,-0.1873,-0.1884,-0.1977,-0.1947,-0.1998,-0.195,-0.1915,-0.1752,-0.1827,-0.166,-0.1621,-0.1505,-0.148,-0.1523,-0.1576,-0.1823,-0.1824,-0.1824,-0.1825,0,-0.1472,-0.151,-0.1507,-0.1561,-0.1576,-0.1577,-0.1665,-0.1689,-0.1787,-0.18,-0.1817,-0.1872,-0.175,-0.1766,-0.1691,-0.1683,-0.1545,-0.1506,-0.135,-0.1293,-0.1193,-0.1253,-0.1168,-0.1133,-0.1268,-0.1264,-0.1259,0,-0.1428,-0.141,-0.1431,-0.141,-0.1423,-0.145,-0.1469,-0.1605,-0.1644,-0.1701,-0.1688,-0.1614,-0.1463,-0.1314,-0.1243,-0.1122,-0.1264,-0.1023,-0.1046,-0.114,-0.1182,-0.1263,-0.1249,-0.0846,-0.0838,-0.0833,-0.0828,0,-0.1311,-0.1312,-0.1294,-0.1251,-0.1249,-0.1278,-0.1326,-0.1361,-0.1495,-0.1483,-0.1392,-0.1262,-0.1053,-0.0789,-0.0694,-0.0677,-0.101,-0.0893,-0.1044,-0.0876,-0.0914,-0.0875,-0.0977,-0.0776,-0.0781,-0.0785,-0.0788,-0.079,-0.119,-0.1142,-0.1101,-0.1062,-0.1066,-0.1083,-0.107,-0.1135,-0.1132,-0.1092,-0.1049,-0.0767,-0.0529,-0.0264,-0.0336,-0.042,-0.0478,-0.0489,-0.0559,-0.0641,-0.0588,-0.0546,-0.0271,-0.0273,-0.0275,-0.0276,-0.0278,0,-0.1005,-0.0966,-0.0916,-0.0868,-0.0826,-0.0894,-0.0945,-0.092,-0.0844,-0.0746,-0.0583,-0.016,0.0052,0.0053,0.002,-0.0129,-0.0252,-0.0268,-0.0415,-0.0419,-0.0415,-0.0381,-0.0051,-0.0051,-0.0051,-0.0051,-0.005,-0.005,-0.0893,-0.0778,-0.0763,-0.0628,-0.0611,-0.0531,-0.0535,-0.0504,-0.0439,-0.0162,0.0099,0.0281,0.0346,0.0119,-0.0148,-0.0221,-0.0378,-0.0284,-0.0443,-0.0541,-0.0572,-0.0603,-0.0592,-0.031,-0.031,-0.04,-0.0401,-0.0402]},{"header":{"parameterUnit":"m.s-1","parameterCategory":2,"la1":30.2991,"la2":30.254,"lo1":-89.0895,"lo2":-89.0444,"dy":0.0017,"dx":0.0017,"nx":28,"ny":28,"refTime":"2024-07-31T21:00:00:Z","depth":"0","parameterNumber":3,"parameterNumberName":"V-component_of_CURRENTS"},"data":[0,0,0,0,0,0,0,0,0,0,0,0,0,0,0,0,0,0,0,0,0,0,0,0,0,0,0,0,0,0,0,0,0,0,0,0,0,0,0,0,0,0,0,0,0,0,0,0,0,0,0,0,0,0,0,0,0,0,-0.0344,-0.0344,0,-0.0337,-0.0337,-0.0337,-0.0283,-0.0281,-0.028,-0.0279,-0.0257,-0.0258,-0.0259,0,0,0,0,0,0,0,0,0,0,0,0,0,-0.0267,-0.0269,-0.0344,-0.0344,-0.0343,-0.0337,-0.0337,-0.0337,-0.0283,-0.0281,-0.028,-0.0278,-0.0257,-0.0258,-0.0259,0,0,0,0,0,0,0,0,0,0,0,0,0,-0.0285,-0.027,-0.0344,-0.0315,-0.0313,-0.0337,-0.0337,-0.0337,-0.0283,-0.0281,-0.0279,-0.0277,-0.0257,-0.0258,-0.0259,-0.0308,0,0,-0.0262,-0.0263,0,0,0,0,0,0,0,0,-0.0284,-0.0288,-0.032,-0.0317,-0.0314,-0.0308,-0.0302,-0.0326,-0.0284,-0.0295,-0.0279,-0.0276,-0.0274,-0.0274,-0.0278,-0.0307,-0.0306,-0.0262,-0.0263,-0.0264,-0.0264,0,0,0,0,0,0,0,-0.0283,-0.0288,-0.0342,-0.032,-0.0316,-0.0288,-0.0289,-0.0306,-0.0297,-0.0294,-0.029,-0.0289,-0.0272,-0.0277,-0.0277,-0.0305,-0.0262,-0.0263,-0.0264,-0.0265,-0.0341,-0.0343,0,0,0,0,0,0,-0.0288,-0.0288,-0.0342,-0.0341,-0.0293,-0.0292,-0.0292,-0.0313,-0.0297,-0.0292,-0.0291,-0.0286,-0.0276,-0.0276,-0.0276,-0.0296,-0.0264,-0.0265,-0.0265,-0.034,-0.0342,-0.0343,0,0,0,0,0,0,-0.0287,-0.0294,-0.0342,-0.0312,-0.0316,-0.0295,-0.0318,-0.0314,-0.0308,-0.0294,-0.0289,-0.0288,-0.0275,-0.0275,-0.029,-0.0296,-0.0265,-0.0266,-0.0338,-0.034,-0.0342,-0.0359,0,0,0,0,0,0,-0.0285,-0.0294,-0.031,-0.0313,-0.0318,-0.0363,-0.032,-0.0315,-0.0311,-0.0305,-0.0291,-0.0287,-0.0273,-0.0289,-0.0291,-0.0297,-0.0267,-0.0337,-0.0339,-0.0342,-0.0357,-0.0362,-0.0366,0,0,0,0,0,-0.0283,-0.0323,-0.0311,-0.0317,-0.0341,-0.0364,-0.0365,-0.0342,-0.0313,-0.0326,-0.031,-0.0287,-0.0306,-0.0291,-0.0294,-0.03,-0.0335,-0.0338,-0.0341,-0.0355,-0.0361,-0.0366,0,0,0,0,0,0,-0.0298,-0.0321,-0.0308,-0.0352,-0.0356,-0.0355,-0.0369,-0.0347,-0.0346,-0.034,-0.0311,-0.0308,-0.0326,-0.032,-0.0304,-0.0332,-0.0316,-0.032,-0.0325,-0.0331,-0.0335,-0.0308,-0.0268,0,0,0,0,0,-0.031,-0.0345,-0.0351,-0.0384,-0.0392,-0.0378,-0.0382,-0.037,-0.0369,-0.0365,-0.0354,-0.0347,-0.0347,-0.0342,-0.0355,-0.0373,-0.0323,-0.0379,-0.0383,-0.0386,-0.0369,-0.0289,-0.0283,-0.0353,-0.0353,-0.0353,0,0,-0.0325,-0.0341,-0.036,-0.0389,-0.0392,-0.0426,-0.0376,-0.0397,-0.0409,-0.0367,-0.0387,-0.0373,-0.036,-0.0376,-0.0383,-0.0365,-0.0348,-0.039,-0.0393,-0.0373,-0.0291,-0.0283,-0.0277,-0.0355,-0.0355,-0.0355,0,0,-0.0384,-0.0389,-0.044,-0.0452,-0.0466,-0.0463,-0.0469,-0.0474,-0.0456,-0.048,-0.0442,-0.0417,-0.0447,-0.0409,-0.0398,-0.0437,-0.0383,-0.0457,-0.0443,-0.0366,-0.0358,-0.035,-0.0299,-0.0286,-0.0447,-0.0447,-0.0447,0,-0.0393,-0.046,-0.0455,-0.0504,-0.0518,-0.0483,-0.0531,-0.0521,-0.0525,-0.0493,-0.0495,-0.046,-0.0453,-0.0412,-0.0425,-0.044,-0.0399,-0.0419,-0.0366,-0.0357,-0.0349,-0.0298,-0.0283,-0.0448,-0.0448,-0.0448,-0.0448,0,-0.0493,-0.0536,-0.0567,-0.0617,-0.0633,-0.0668,-0.0655,-0.0652,-0.0625,-0.0584,-0.0543,-0.0516,-0.0472,-0.0477,-0.0465,-0.0403,-0.0396,-0.0386,-0.0341,-0.0342,-0.029,-0.0274,-0.045,-0.0449,-0.0449,-0.0449,0,0,-0.0536,-0.062,-0.0629,-0.066,-0.0691,-0.0715,-0.0728,-0.0705,-0.0668,-0.0645,-0.0583,-0.0561,-0.0491,-0.0474,-0.0437,-0.0368,-0.0288,-0.0355,-0.035,-0.0283,-0.013,-0.0081,-0.0059,-0.0262,-0.0259,-0.0257,-0.0124,0,-0.0606,-0.0717,-0.0736,-0.0818,-0.0867,-0.0836,-0.0839,-0.0802,-0.0745,-0.0678,-0.0578,-0.053,-0.0504,-0.0473,-0.0395,-0.0316,-0.0246,-0.0326,-0.0157,-0.0152,-0.0089,-0.0038,0.0039,0.0169,-0.0108,-0.0106,-0.0104,0,-0.0698,-0.0754,-0.0857,-0.0896,-0.091,-0.0944,-0.0906,-0.0905,-0.0782,-0.0724,-0.0616,-0.0535,-0.0421,-0.0412,-0.0231,-0.0283,-0.0208,-0.0144,-0.0137,-0.0065,-0.0072,0.0127,0.0208,0.029,-0.008,-0.0082,-0.0083,0,-0.0736,-0.0832,-0.0911,-0.0935,-0.0978,-0.0988,-0.099,-0.0906,-0.0871,-0.0738,-0.0685,-0.052,-0.044,-0.0313,-0.0169,-0.0199,0.0032,0.0007,0.0127,0.0129,0.0244,0.0253,0.0451,0.0141,0.0141,0.0141,0.014,0,-0.0806,-0.0863,-0.0934,-0.0977,-0.1026,-0.1033,-0.1031,-0.0989,-0.0899,-0.082,-0.0705,-0.06,-0.041,-0.0251,-0.0144,0.0061,0.0063,0.0157,0.0187,0.0234,0.024,0.0354,0.0367,0.0146,0.0145,0.0144,0.0143,0,-0.0839,-0.0896,-0.0982,-0.104,-0.1056,-0.1089,-0.1093,-0.1063,-0.0988,-0.0885,-0.0848,-0.0638,-0.0409,-0.0222,0.0015,0.01,0.0362,0.0335,0.0369,0.0401,0.0565,0.0572,0.0802,0.0916,0.0487,0.0489,0.0491,0,-0.0863,-0.0918,-0.1023,-0.1063,-0.1096,-0.1137,-0.1143,-0.1106,-0.1056,-0.089,-0.0824,-0.059,-0.0378,-0.0021,0.022,0.0456,0.0506,0.0608,0.0569,0.0621,0.0652,0.0638,0.0716,0.0701,0.0705,0.0707,0.071,0,-0.0878,-0.0924,-0.0985,-0.1079,-0.1127,-0.1171,-0.1169,-0.1142,-0.105,-0.0941,-0.0717,-0.0547,-0.0176,0.0179,0.0462,0.0591,0.0707,0.0671,0.0745,0.0868,0.0853,0.096,0.0532,0.0735,0.0733,0.0731,0.073,0.0729,-0.0852,-0.0902,-0.0982,-0.1064,-0.1124,-0.1145,-0.1128,-0.1069,-0.0964,-0.0711,-0.0602,-0.0284,0.0095,0.0549,0.0674,0.0981,0.0938,0.1043,0.1056,0.1041,0.1147,0.076,0.0979,0.0978,0.0977,0.0976,0.0975,0,-0.0783,-0.0855,-0.0946,-0.1032,-0.1071,-0.112,-0.1088,-0.0994,-0.0808,-0.0574,-0.0323,0.0141,0.0532,0.0837,0.1252,0.1356,0.1373,0.1403,0.1411,0.1482,0.1175,0.1178,0.1428,0.1428,0.1428,0.1427,0.1427,0.1427,-0.0743,-0.0805,-0.0877,-0.0936,-0.0989,-0.0966,-0.0923,-0.0763,-0.0577,-0.0147,0.0168,0.0404,0.0812,0.1272,0.1614,0.1654,0.1757,0.1735,0.1794,0.1556,0.1523,0.1491,0.1499,0.1812,0.1813,0.2131,0.2134,0.2136]}],[{"header":{"parameterUnit":"m.s-1","parameterCategory":2,"la1":30.2991,"la2":30.254,"lo1":-89.0895,"lo2":-89.0444,"dy":0.0017,"dx":0.0017,"nx":28,"ny":28,"refTime":"2024-07-31T21:00:00:Z","depth":"2","parameterNumber":2,"parameterNumberName":"U-component_of_CURRENTS"},"data":[0,0,0,0,0,0,0,0,0,0,0,0,0,0,0,0,0,0,0,0,0,0,0,0,0,0,0,0,0,0,0,0,0,0,0,0,0,0,0,0,0,0,0,0,0,0,0,0,0,0,0,0,0,0,0,0,0,0,-0.2148,-0.2149,0,-0.2304,-0.2307,-0.2309,-0.2493,-0.2495,-0.2497,-0.2498,-0.2619,-0.262,-0.2622,0,0,0,0,0,0,0,0,0,0,0,0,0,-0.2022,-0.2024,-0.2148,-0.2149,-0.215,-0.2304,-0.2307,-0.231,-0.2492,-0.2495,-0.2497,-0.2499,-0.2618,-0.262,-0.2622,0,0,0,0,0,0,0,0,0,0,0,0,0,-0.2125,-0.2024,-0.2148,-0.2253,-0.2264,-0.2303,-0.2307,-0.2311,-0.2492,-0.2495,-0.2498,-0.25,-0.2618,-0.262,-0.2622,-0.2574,0,0,-0.2628,-0.2629,0,0,0,0,0,0,0,0,-0.2119,-0.2131,-0.2237,-0.2246,-0.2258,-0.2375,-0.2307,-0.2394,-0.2491,-0.2414,-0.2498,-0.2502,-0.2526,-0.2536,-0.2571,-0.258,-0.2585,-0.2628,-0.2629,-0.263,-0.2631,0,0,0,0,0,0,0,-0.2112,-0.2125,-0.2219,-0.2237,-0.225,-0.2297,-0.2316,-0.2325,-0.2457,-0.2421,-0.2433,-0.2436,-0.2533,-0.2569,-0.2575,-0.2587,-0.2628,-0.263,-0.2631,-0.2632,-0.2728,-0.2729,0,0,0,0,0,0,-0.2071,-0.2118,-0.2213,-0.2222,-0.2185,-0.2297,-0.2318,-0.2341,-0.2458,-0.2477,-0.2433,-0.2443,-0.2564,-0.2573,-0.258,-0.2653,-0.263,-0.2632,-0.2633,-0.2727,-0.2728,-0.273,0,0,0,0,0,0,-0.2068,-0.2079,-0.2207,-0.2166,-0.2184,-0.2295,-0.2319,-0.2342,-0.2405,-0.2466,-0.2487,-0.2473,-0.2567,-0.2577,-0.264,-0.2654,-0.2633,-0.2635,-0.2725,-0.2727,-0.2729,-0.2719,0,0,0,0,0,0,-0.2064,-0.2078,-0.2095,-0.2163,-0.2185,-0.2257,-0.2316,-0.2343,-0.2396,-0.2413,-0.2506,-0.252,-0.257,-0.2637,-0.2642,-0.2656,-0.2636,-0.2723,-0.2726,-0.2728,-0.2717,-0.272,-0.2722,0,0,0,0,0,-0.206,-0.2071,-0.2095,-0.2107,-0.2201,-0.2257,-0.2275,-0.2367,-0.2394,-0.2433,-0.2506,-0.2518,-0.2657,-0.2639,-0.2645,-0.266,-0.2722,-0.2725,-0.2728,-0.2716,-0.2719,-0.2722,0,0,0,0,0,0,-0.2022,-0.2091,-0.212,-0.2152,-0.2207,-0.2286,-0.2315,-0.2361,-0.2447,-0.2471,-0.2528,-0.2547,-0.2615,-0.2631,-0.261,-0.2699,-0.2692,-0.2697,-0.2681,-0.2684,-0.2687,-0.2618,-0.2638,0,0,0,0,0,-0.2013,-0.2041,-0.211,-0.2128,-0.2156,-0.223,-0.2264,-0.233,-0.2399,-0.2444,-0.2509,-0.2573,-0.2623,-0.2651,-0.2707,-0.273,-0.2675,-0.2748,-0.2751,-0.2752,-0.2703,-0.262,-0.2608,-0.274,-0.274,-0.274,0,0,-0.1997,-0.2033,-0.2051,-0.2121,-0.2169,-0.2223,-0.2263,-0.2323,-0.2376,-0.2433,-0.253,-0.2584,-0.2635,-0.27,-0.2728,-0.2718,-0.2699,-0.2756,-0.2757,-0.2705,-0.2621,-0.2608,-0.2595,-0.2742,-0.2742,-0.2741,0,0,-0.197,-0.2015,-0.2038,-0.2094,-0.2166,-0.2217,-0.223,-0.233,-0.239,-0.2465,-0.2532,-0.2579,-0.2667,-0.2706,-0.2729,-0.276,-0.2721,-0.2801,-0.2745,-0.2668,-0.2654,-0.2641,-0.2592,-0.2574,-0.2794,-0.2794,-0.2794,0,-0.196,-0.199,-0.2049,-0.2095,-0.2131,-0.221,-0.225,-0.2319,-0.2433,-0.2447,-0.2501,-0.2588,-0.2656,-0.2669,-0.272,-0.2758,-0.2714,-0.273,-0.2663,-0.2649,-0.2636,-0.2588,-0.2569,-0.2793,-0.2793,-0.2793,-0.2793,0,-0.1966,-0.2,-0.2011,-0.2097,-0.2148,-0.2192,-0.2284,-0.2341,-0.24,-0.2452,-0.2493,-0.257,-0.2603,-0.2653,-0.2706,-0.2663,-0.2665,-0.2678,-0.2639,-0.262,-0.2574,-0.2554,-0.2793,-0.2793,-0.2793,-0.2793,0,0,-0.1915,-0.2002,-0.2007,-0.2035,-0.2156,-0.2189,-0.2259,-0.2315,-0.233,-0.242,-0.2411,-0.2508,-0.2521,-0.2545,-0.2602,-0.2551,-0.2476,-0.258,-0.2576,-0.2501,-0.231,-0.2244,-0.2216,-0.2469,-0.2465,-0.2462,-0.2327,0,-0.1901,-0.1954,-0.2009,-0.2058,-0.2095,-0.2179,-0.2225,-0.2292,-0.2347,-0.2375,-0.2393,-0.2432,-0.2489,-0.2509,-0.2463,-0.2497,-0.2416,-0.2511,-0.2362,-0.2357,-0.2275,-0.2187,-0.2077,-0.1939,-0.2307,-0.2303,-0.2301,0,-0.189,-0.1922,-0.1965,-0.202,-0.2042,-0.2086,-0.2134,-0.2192,-0.224,-0.2277,-0.2272,-0.2318,-0.2304,-0.2341,-0.2263,-0.2323,-0.2291,-0.2282,-0.2277,-0.2184,-0.225,-0.2012,-0.1888,-0.2267,-0.2269,-0.2272,-0.2274,0,-0.1811,-0.188,-0.1896,-0.1934,-0.2028,-0.2036,-0.2076,-0.2143,-0.2177,-0.22,-0.2219,-0.2191,-0.2206,-0.2129,-0.2159,-0.22,-0.2042,-0.21,-0.1977,-0.1976,-0.1829,-0.1819,-0.1944,-0.1944,-0.1944,-0.1945,-0.1945,0,-0.1775,-0.1784,-0.1855,-0.1877,-0.1885,-0.1967,-0.1979,-0.2021,-0.2068,-0.2088,-0.2149,-0.2152,-0.2149,-0.2104,-0.2084,-0.1965,-0.1968,-0.1909,-0.1902,-0.1832,-0.1825,-0.207,-0.2087,-0.194,-0.1941,-0.1942,-0.1942,0,-0.1698,-0.1749,-0.1771,-0.1839,-0.1855,-0.1862,-0.1935,-0.194,-0.2003,-0.2022,-0.2029,-0.2104,-0.2048,-0.201,-0.192,-0.1879,-0.1773,-0.1716,-0.1652,-0.1637,-0.178,-0.1798,-0.1547,-0.1543,-0.154,-0.1537,-0.1534,0,-0.1667,-0.1671,-0.1733,-0.1739,-0.1768,-0.1796,-0.1813,-0.1892,-0.191,-0.1996,-0.199,-0.1978,-0.196,-0.1808,-0.1702,-0.1554,-0.164,-0.1373,-0.1408,-0.1702,-0.1723,-0.1747,-0.177,-0.1239,-0.1234,-0.1231,-0.1227,0,-0.16,-0.1621,-0.1642,-0.1658,-0.1672,-0.1697,-0.1727,-0.1744,-0.1831,-0.1855,-0.1875,-0.1867,-0.1758,-0.1594,-0.1427,-0.1332,-0.1393,-0.1288,-0.1549,-0.1368,-0.1402,-0.1428,-0.1461,-0.1193,-0.1197,-0.1199,-0.1201,-0.1202,-0.1538,-0.1534,-0.1556,-0.1558,-0.1577,-0.1582,-0.1569,-0.1608,-0.1627,-0.1607,-0.1677,-0.1583,-0.1591,-0.1267,-0.1151,-0.1021,-0.1137,-0.1081,-0.1096,-0.1114,-0.1113,-0.114,-0.0883,-0.0885,-0.0886,-0.0887,-0.0888,0,-0.1457,-0.1454,-0.1451,-0.1454,-0.1424,-0.1482,-0.1491,-0.1457,-0.1435,-0.1385,-0.1333,-0.1162,-0.1056,-0.102,-0.0795,-0.0746,-0.0754,-0.0683,-0.0737,-0.0771,-0.0801,-0.0788,-0.0469,-0.0468,-0.0466,-0.0465,0,0,-0.1414,-0.1376,-0.137,-0.1292,-0.1298,-0.1273,-0.1261,-0.1212,-0.1155,-0.1,-0.0896,-0.0911,-0.0991,-0.0745,-0.0691,-0.0553,-0.0641,-0.0483,-0.0822,-0.092,-0.0949,-0.1031,-0.1049,0,0,0,0,0]},{"header":{"parameterUnit":"m.s-1","parameterCategory":2,"la1":30.2991,"la2":30.254,"lo1":-89.0895,"lo2":-89.0444,"dy":0.0017,"dx":0.0017,"nx":28,"ny":28,"refTime":"2024-07-31T21:00:00:Z","depth":"2","parameterNumber":3,"parameterNumberName":"V-component_of_CURRENTS"},"data":[0,0,0,0,0,0,0,0,0,0,0,0,0,0,0,0,0,0,0,0,0,0,0,0,0,0,0,0,0,0,0,0,0,0,0,0,0,0,0,0,0,0,0,0,0,0,0,0,0,0,0,0,0,0,0,0,0,0,-0.0212,-0.0211,0,-0.0103,-0.0101,-0.0099,0.0028,0.0029,0.0031,0.0032,0.0237,0.0241,0.0245,0,0,0,0,0,0,0,0,0,0,0,0,0,-0.0285,-0.0284,-0.0212,-0.0211,-0.021,-0.0103,-0.0101,-0.0099,0.0028,0.0029,0.0031,0.0033,0.0236,0.0241,0.0245,0,0,0,0,0,0,0,0,0,0,0,0,0,-0.0219,-0.0284,-0.0212,-0.0137,-0.013,-0.0103,-0.0101,-0.0098,0.0027,0.0029,0.0032,0.0034,0.0234,0.024,0.0246,0.0237,0,0,0.0264,0.0267,0,0,0,0,0,0,0,0,-0.0222,-0.0215,-0.0149,-0.0142,-0.0134,-0.0052,-0.0052,0.0017,0.0027,-0.0028,0.0032,0.0035,0.0145,0.0158,0.0178,0.0247,0.0255,0.0265,0.0269,0.0271,0.0273,0,0,0,0,0,0,0,-0.0227,-0.0219,-0.0165,-0.0149,-0.0139,-0.01,-0.0088,-0.0038,0.0049,-0.0023,-0.0015,-0.001,0.0151,0.0172,0.0184,0.0258,0.0265,0.027,0.0274,0.0276,0.0513,0.0516,0,0,0,0,0,0,-0.0253,-0.0224,-0.0168,-0.0162,-0.0178,-0.0101,-0.0087,-0.0077,0.0047,0.0066,-0.0012,-0.0004,0.0161,0.0177,0.0192,0.0311,0.0271,0.0277,0.028,0.0511,0.0514,0.0517,0,0,0,0,0,0,-0.0255,-0.0249,-0.0173,-0.0194,-0.0182,-0.0103,-0.0093,-0.0077,-0.0047,0.0053,0.0076,0.0001,0.0163,0.0184,0.0255,0.0315,0.028,0.0285,0.0507,0.0512,0.0515,0.0471,0,0,0,0,0,0,-0.0258,-0.025,-0.0251,-0.0196,-0.0182,-0.0152,-0.0095,-0.0076,-0.0051,-0.0039,0.0071,0.0093,0.0167,0.0246,0.0261,0.0323,0.029,0.0504,0.0509,0.0514,0.0469,0.0473,0.0476,0,0,0,0,0,-0.026,-0.0265,-0.0252,-0.0245,-0.0185,-0.0153,-0.0142,-0.0075,-0.0053,-0.0041,0.0041,0.009,0.0292,0.025,0.0269,0.0334,0.0502,0.0508,0.0514,0.0467,0.0472,0.0476,0,0,0,0,0,0,-0.0291,-0.0252,-0.0235,-0.0227,-0.0195,-0.0133,-0.012,-0.009,-0.0021,-0.0003,0.0089,0.0116,0.023,0.027,0.0223,0.0424,0.0418,0.0428,0.0377,0.0382,0.0386,0.0309,0.0295,0,0,0,0,0,-0.0306,-0.0301,-0.0259,-0.0254,-0.0242,-0.019,-0.0171,-0.0129,-0.0067,-0.0035,0.0046,0.0149,0.0265,0.0306,0.0412,0.0469,0.0456,0.0539,0.0542,0.0544,0.0499,0.0472,0.0465,0.0536,0.0536,0.0536,0,0,-0.0317,-0.0298,-0.0293,-0.0262,-0.0231,-0.0213,-0.017,-0.0143,-0.0113,-0.0025,0.005,0.0164,0.0289,0.0401,0.0453,0.0435,0.0538,0.0552,0.0553,0.0505,0.0477,0.0469,0.0461,0.0541,0.054,0.0539,0,0,-0.0343,-0.0322,-0.0327,-0.0305,-0.0271,-0.0234,-0.0235,-0.0171,-0.0125,-0.0064,0.0055,0.0161,0.0302,0.041,0.0481,0.0547,0.0571,0.0628,0.0561,0.0536,0.0527,0.0519,0.0554,0.0549,0.061,0.061,0.061,0,-0.0357,-0.0357,-0.0324,-0.0322,-0.0307,-0.0251,-0.0249,-0.0199,-0.0113,-0.0086,-0.0041,0.0176,0.03,0.042,0.0491,0.055,0.0552,0.0529,0.053,0.0522,0.0514,0.0551,0.0546,0.0609,0.0609,0.0609,0.0609,0,-0.0384,-0.038,-0.0382,-0.0358,-0.0339,-0.0326,-0.0266,-0.0229,-0.0174,-0.0121,-0.0007,0.0139,0.0252,0.0358,0.0455,0.0512,0.0543,0.0545,0.0494,0.0502,0.0545,0.054,0.0607,0.0607,0.0608,0.0608,0,0,-0.0416,-0.0403,-0.0403,-0.0405,-0.0356,-0.0346,-0.0306,-0.026,-0.0243,-0.0148,-0.0121,0.0103,0.0157,0.0241,0.038,0.0388,0.0409,0.0447,0.0446,0.0438,0.0387,0.045,0.0452,0.0395,0.0393,0.0391,0.046,0,-0.0444,-0.0461,-0.0439,-0.0443,-0.0444,-0.0392,-0.0365,-0.0315,-0.0252,-0.0204,-0.009,0.0014,0.012,0.0199,0.0217,0.039,0.0384,0.0392,0.0418,0.0419,0.0434,0.0443,0.0437,0.0499,0.0455,0.0454,0.0454,0,-0.0471,-0.0481,-0.0499,-0.0495,-0.0492,-0.0481,-0.0448,-0.0415,-0.034,-0.0294,-0.0234,-0.0131,-0.002,0.0036,0.0168,0.0167,0.0255,0.0342,0.0345,0.0393,0.0469,0.0478,0.0491,0.0445,0.0446,0.0447,0.0447,0,-0.0514,-0.0521,-0.0542,-0.0536,-0.0519,-0.0519,-0.0503,-0.0444,-0.0422,-0.0355,-0.0331,-0.0237,-0.0148,-0.0088,0.0137,0.0139,0.0256,0.0269,0.0383,0.0392,0.0383,0.0394,0.0266,0.0266,0.0266,0.0266,0.0266,0,-0.0546,-0.0564,-0.0567,-0.0577,-0.0603,-0.0571,-0.0579,-0.0549,-0.0504,-0.0484,-0.0386,-0.0338,-0.0184,-0.0068,0.0073,0.0239,0.0186,0.0356,0.0391,0.0384,0.0393,0.0329,0.0335,0.0269,0.0268,0.0268,0.0267,0,-0.0583,-0.0583,-0.0613,-0.0619,-0.0624,-0.0641,-0.0635,-0.0638,-0.0589,-0.0563,-0.0545,-0.0405,-0.0233,-0.0066,0.0109,0.0188,0.0326,0.0383,0.0409,0.0444,0.0493,0.0497,0.0481,0.0483,0.0485,0.0487,0.0488,0,-0.0602,-0.0621,-0.0653,-0.0676,-0.068,-0.0699,-0.0713,-0.0683,-0.0679,-0.0592,-0.0581,-0.0407,-0.0238,0.005,0.0225,0.0431,0.0419,0.0497,0.0475,0.0467,0.0503,0.0504,0.0506,0.0485,0.0487,0.0488,0.0488,0,-0.064,-0.065,-0.0677,-0.0727,-0.0755,-0.0787,-0.0798,-0.0811,-0.0767,-0.0713,-0.0593,-0.0444,-0.0131,0.014,0.0402,0.0494,0.0463,0.0523,0.0472,0.0435,0.0477,0.0511,0.0511,0.0497,0.0496,0.0496,0.0495,0.0495,-0.0667,-0.0696,-0.0732,-0.0775,-0.0817,-0.0862,-0.0875,-0.0862,-0.0837,-0.0713,-0.0577,-0.0296,-0.0082,0.0358,0.0488,0.0587,0.059,0.059,0.0584,0.0577,0.0567,0.061,0.0658,0.0658,0.0658,0.0658,0.0658,0,-0.0702,-0.073,-0.0776,-0.0837,-0.0893,-0.09,-0.0921,-0.0907,-0.0855,-0.0634,-0.0439,-0.0169,0.0159,0.0382,0.0578,0.0667,0.0615,0.0646,0.0578,0.0571,0.0564,0.055,0.0638,0.0638,0.0638,0.0638,0,0,-0.0723,-0.077,-0.0791,-0.0884,-0.0931,-0.0985,-0.099,-0.0933,-0.0766,-0.0545,-0.0292,0.0023,0.0281,0.0389,0.0504,0.0609,0.055,0.0584,0.0599,0.0502,0.0494,0.0539,0.0511,0,0,0,0,0]}],[{"header":{"parameterUnit":"m.s-1","parameterCategory":2,"la1":30.2991,"la2":30.254,"lo1":-89.0895,"lo2":-89.0444,"dy":0.0017,"dx":0.0017,"nx":28,"ny":28,"refTime":"2024-07-31T21:00:00:Z","depth":"4","parameterNumber":2,"parameterNumberName":"U-component_of_CURRENTS"},"data":[0,0,0,0,0,0,0,0,0,0,0,0,0,0,0,0,0,0,0,0,0,0,0,0,0,0,0,0,0,0,0,0,0,0,0,0,0,0,0,0,0,0,0,0,0,0,0,0,0,0,0,0,0,0,0,0,0,0,-0.1352,-0.1353,0,-0.1415,-0.1416,-0.1416,-0.1425,-0.1424,-0.1424,-0.1424,-0.1465,-0.1467,-0.1468,0,0,0,0,0,0,0,0,0,0,0,0,0,-0.1266,-0.1267,-0.1352,-0.1353,-0.1354,-0.1415,-0.1416,-0.1417,-0.1425,-0.1424,-0.1424,-0.1423,-0.1465,-0.1466,-0.1468,0,0,0,0,0,0,0,0,0,0,0,0,0,-0.1311,-0.1267,-0.1352,-0.1368,-0.137,-0.1415,-0.1416,-0.1417,-0.1425,-0.1424,-0.1424,-0.1423,-0.1464,-0.1466,-0.1468,-0.1493,0,0,-0.1475,-0.1476,0,0,0,0,0,0,0,0,-0.1308,-0.1314,-0.1364,-0.1367,-0.1369,-0.1414,-0.1401,-0.1442,-0.1425,-0.1401,-0.1424,-0.1423,-0.1448,-0.1452,-0.1461,-0.1495,-0.1497,-0.1475,-0.1477,-0.1477,-0.1478,0,0,0,0,0,0,0,-0.1305,-0.1311,-0.1375,-0.1366,-0.1369,-0.1381,-0.1386,-0.1409,-0.1425,-0.1403,-0.1405,-0.1416,-0.1449,-0.1459,-0.1462,-0.1497,-0.1475,-0.1477,-0.1478,-0.1479,-0.1576,-0.1577,0,0,0,0,0,0,-0.1302,-0.1309,-0.1373,-0.1377,-0.134,-0.1383,-0.1389,-0.1398,-0.1425,-0.1429,-0.1416,-0.1416,-0.1456,-0.146,-0.1464,-0.1513,-0.1477,-0.1479,-0.1481,-0.1574,-0.1576,-0.1577,0,0,0,0,0,0,-0.13,-0.1307,-0.137,-0.1346,-0.1355,-0.1385,-0.1395,-0.14,-0.1428,-0.1436,-0.1439,-0.1442,-0.1456,-0.1461,-0.1498,-0.1513,-0.148,-0.1482,-0.1573,-0.1575,-0.1577,-0.1599,0,0,0,0,0,0,-0.1297,-0.1306,-0.1322,-0.1346,-0.1357,-0.1403,-0.1396,-0.1401,-0.1436,-0.1436,-0.1459,-0.1461,-0.1455,-0.1495,-0.15,-0.1516,-0.1484,-0.1571,-0.1574,-0.1576,-0.1596,-0.1601,-0.1605,0,0,0,0,0,-0.1294,-0.1315,-0.1322,-0.1331,-0.1374,-0.1404,-0.1411,-0.1428,-0.1438,-0.1451,-0.147,-0.1461,-0.1513,-0.1498,-0.1504,-0.152,-0.157,-0.1573,-0.1576,-0.1594,-0.16,-0.1605,0,0,0,0,0,0,-0.1285,-0.1319,-0.1327,-0.1357,-0.1382,-0.1406,-0.143,-0.1444,-0.1472,-0.1479,-0.1483,-0.1487,-0.1519,-0.1526,-0.1509,-0.1556,-0.1539,-0.1543,-0.1551,-0.1556,-0.1561,-0.1554,-0.1486,0,0,0,0,0,-0.1292,-0.1317,-0.1345,-0.1371,-0.1386,-0.1414,-0.1435,-0.1447,-0.1472,-0.1484,-0.1503,-0.1523,-0.1534,-0.1551,-0.1562,-0.16,-0.1588,-0.1614,-0.1618,-0.1622,-0.1622,-0.1637,-0.1643,-0.1587,-0.1587,-0.1586,0,0,-0.1299,-0.1319,-0.1336,-0.1371,-0.1395,-0.142,-0.1425,-0.1461,-0.1482,-0.1485,-0.153,-0.154,-0.1547,-0.1576,-0.1592,-0.1586,-0.1627,-0.1625,-0.1628,-0.1626,-0.1641,-0.1646,-0.1651,-0.1588,-0.1588,-0.1588,0,0,-0.1316,-0.1342,-0.1366,-0.1388,-0.1427,-0.1442,-0.1458,-0.1496,-0.1514,-0.1558,-0.1555,-0.1579,-0.1619,-0.1616,-0.162,-0.1662,-0.1646,-0.1673,-0.1697,-0.1712,-0.1716,-0.172,-0.1687,-0.1688,-0.1681,-0.1681,-0.1681,0,-0.1322,-0.1352,-0.1378,-0.1403,-0.1426,-0.1454,-0.1481,-0.1504,-0.155,-0.1573,-0.1576,-0.1631,-0.1632,-0.1655,-0.1661,-0.167,-0.1666,-0.1672,-0.1716,-0.172,-0.1723,-0.1689,-0.169,-0.1682,-0.1682,-0.1682,-0.1682,0,-0.1348,-0.1379,-0.1397,-0.1434,-0.1463,-0.1492,-0.1523,-0.1559,-0.1591,-0.1614,-0.166,-0.1667,-0.17,-0.1701,-0.1692,-0.172,-0.1702,-0.1713,-0.1698,-0.173,-0.1692,-0.1692,-0.1684,-0.1684,-0.1683,-0.1683,0,0,-0.1335,-0.1402,-0.1409,-0.1432,-0.1481,-0.1505,-0.155,-0.1594,-0.1632,-0.1671,-0.1715,-0.1729,-0.1745,-0.175,-0.1747,-0.1755,-0.1757,-0.1749,-0.1749,-0.1706,-0.1763,-0.1626,-0.1612,-0.1785,-0.1786,-0.1787,-0.1717,0,-0.1345,-0.1395,-0.1428,-0.1476,-0.1502,-0.1545,-0.1584,-0.1631,-0.1673,-0.1723,-0.1737,-0.1772,-0.176,-0.1778,-0.1787,-0.177,-0.1763,-0.1772,-0.1747,-0.1745,-0.1612,-0.161,-0.1789,-0.1717,-0.1717,-0.1717,-0.1717,0,-0.1346,-0.1384,-0.1434,-0.15,-0.1518,-0.1553,-0.1627,-0.1664,-0.1731,-0.1767,-0.1811,-0.1827,-0.184,-0.1829,-0.1816,-0.1829,-0.1797,-0.1775,-0.1773,-0.1638,-0.1609,-0.1686,-0.1717,-0.1717,-0.1717,-0.1717,-0.1717,0,-0.1309,-0.1381,-0.1423,-0.1444,-0.1526,-0.1564,-0.1608,-0.1682,-0.1717,-0.1792,-0.1825,-0.1862,-0.187,-0.1863,-0.1812,-0.1829,-0.178,-0.1799,-0.1637,-0.1625,-0.1761,-0.1758,-0.1784,-0.1784,-0.1784,-0.1784,-0.1784,0,-0.1284,-0.132,-0.1414,-0.1435,-0.1492,-0.1554,-0.1617,-0.1672,-0.1743,-0.1765,-0.184,-0.1848,-0.1885,-0.1861,-0.1823,-0.1708,-0.1788,-0.1624,-0.1601,-0.1768,-0.1767,-0.1758,-0.1756,-0.1781,-0.1782,-0.1782,-0.1783,0,-0.1225,-0.1288,-0.1341,-0.1441,-0.1473,-0.1512,-0.1605,-0.1638,-0.1722,-0.1751,-0.1771,-0.1838,-0.1806,-0.1799,-0.1765,-0.1691,-0.1615,-0.1553,-0.1692,-0.1681,-0.1447,-0.1448,-0.1374,-0.1369,-0.1364,-0.1361,-0.1357,0,-0.1196,-0.1221,-0.1332,-0.1361,-0.1407,-0.1477,-0.1513,-0.1611,-0.1628,-0.1712,-0.1697,-0.172,-0.1737,-0.1568,-0.1595,-0.1501,-0.148,-0.1423,-0.1467,-0.1421,-0.1408,-0.1415,-0.1421,-0.135,-0.1349,-0.1348,-0.1347,0,-0.1138,-0.119,-0.1233,-0.1295,-0.1341,-0.1385,-0.1436,-0.1437,-0.1518,-0.1616,-0.1567,-0.154,-0.1498,-0.1469,-0.1396,-0.1339,-0.146,-0.1376,-0.1386,-0.1427,-0.1391,-0.1384,-0.1395,-0.1331,-0.1333,-0.1335,-0.1336,0,-0.1093,-0.1109,-0.1169,-0.1206,-0.1257,-0.1251,-0.1304,-0.1302,-0.1332,-0.1414,-0.1389,-0.1414,-0.1473,-0.138,-0.1317,-0.1246,-0.1235,-0.1186,-0.1206,-0.1223,-0.1206,-0.1142,-0.0969,0,0,0,0,0,-0.1039,-0.1041,-0.1071,-0.1096,-0.1135,-0.1159,-0.1226,-0.1274,-0.1349,-0.1264,-0.1319,-0.1269,-0.1199,-0.1228,-0.112,-0.125,-0.1241,-0.1119,-0.1196,-0.1244,-0.1262,-0.1256,0,0,0,0,0,0,-0.1002,-0.1031,-0.1035,-0.0982,-0.097,-0.0994,-0.1026,-0.1084,-0.1047,-0.1134,-0.1106,-0.1171,-0.1131,-0.1228,-0.1088,-0.1089,-0.1102,-0.1141,-0.1136,-0.1233,-0.125,-0.1264,-0.1265,0,0,0,0,0]},{"header":{"parameterUnit":"m.s-1","parameterCategory":2,"la1":30.2991,"la2":30.254,"lo1":-89.0895,"lo2":-89.0444,"dy":0.0017,"dx":0.0017,"nx":28,"ny":28,"refTime":"2024-07-31T21:00:00:Z","depth":"4","parameterNumber":3,"parameterNumberName":"V-component_of_CURRENTS"},"data":[0,0,0,0,0,0,0,0,0,0,0,0,0,0,0,0,0,0,0,0,0,0,0,0,0,0,0,0,0,0,0,0,0,0,0,0,0,0,0,0,0,0,0,0,0,0,0,0,0,0,0,0,0,0,0,0,0,0,-0.0217,-0.0217,0,-0.02,-0.02,-0.02,-0.019,-0.019,-0.019,-0.019,-0.0146,-0.0145,-0.0144,0,0,0,0,0,0,0,0,0,0,0,0,0,-0.0239,-0.0239,-0.0217,-0.0217,-0.0217,-0.02,-0.02,-0.02,-0.019,-0.019,-0.019,-0.019,-0.0147,-0.0146,-0.0144,0,0,0,0,0,0,0,0,0,0,0,0,0,-0.0227,-0.0239,-0.0217,-0.0209,-0.0208,-0.02,-0.02,-0.02,-0.019,-0.019,-0.019,-0.019,-0.0147,-0.0146,-0.0144,-0.0139,0,0,-0.0139,-0.0139,0,0,0,0,0,0,0,0,-0.0228,-0.0227,-0.0211,-0.021,-0.0209,-0.0196,-0.0191,-0.0178,-0.019,-0.0198,-0.019,-0.019,-0.016,-0.0157,-0.0157,-0.0137,-0.0135,-0.0139,-0.0138,-0.0138,-0.0137,0,0,0,0,0,0,0,-0.0229,-0.0228,-0.0212,-0.021,-0.0209,-0.0205,-0.0203,-0.0189,-0.0181,-0.0198,-0.0197,-0.0193,-0.0159,-0.0158,-0.0155,-0.0134,-0.0139,-0.0138,-0.0137,-0.0136,-0.0117,-0.0118,0,0,0,0,0,0,-0.0229,-0.0228,-0.0212,-0.0211,-0.0217,-0.0205,-0.0203,-0.0201,-0.0182,-0.0178,-0.0193,-0.0193,-0.0161,-0.0157,-0.0154,-0.0155,-0.0138,-0.0136,-0.0135,-0.0117,-0.0117,-0.0118,0,0,0,0,0,0,-0.023,-0.0228,-0.0213,-0.0218,-0.0216,-0.0204,-0.0203,-0.0201,-0.0201,-0.0178,-0.0175,-0.0195,-0.0161,-0.0156,-0.015,-0.0153,-0.0136,-0.0134,-0.0116,-0.0117,-0.0117,-0.0151,0,0,0,0,0,0,-0.023,-0.0228,-0.0233,-0.0218,-0.0216,-0.0214,-0.0203,-0.0201,-0.0199,-0.0198,-0.0179,-0.0175,-0.016,-0.0153,-0.0149,-0.015,-0.0133,-0.0116,-0.0117,-0.0117,-0.015,-0.0153,-0.0156,0,0,0,0,0,-0.0231,-0.0236,-0.0233,-0.0231,-0.022,-0.0214,-0.0213,-0.0204,-0.0199,-0.0204,-0.0193,-0.0175,-0.0154,-0.0152,-0.0147,-0.0148,-0.0115,-0.0116,-0.0117,-0.0148,-0.0152,-0.0156,0,0,0,0,0,0,-0.0249,-0.0235,-0.0231,-0.0233,-0.0226,-0.0212,-0.0215,-0.0208,-0.0203,-0.0204,-0.0181,-0.0177,-0.0175,-0.0157,-0.0155,-0.0146,-0.0131,-0.0131,-0.0157,-0.016,-0.0163,-0.0156,-0.0132,0,0,0,0,0,-0.0254,-0.0256,-0.0241,-0.0244,-0.0241,-0.0229,-0.0227,-0.0222,-0.0213,-0.0211,-0.0196,-0.0182,-0.0175,-0.0165,-0.0158,-0.0148,-0.0107,-0.0146,-0.0149,-0.0152,-0.0143,-0.0076,-0.0071,-0.0121,-0.0121,-0.0121,0,0,-0.0261,-0.0255,-0.0256,-0.0249,-0.0243,-0.0245,-0.0228,-0.0228,-0.0232,-0.0206,-0.0208,-0.0196,-0.0178,-0.0175,-0.0171,-0.0158,-0.012,-0.0153,-0.0155,-0.0145,-0.0076,-0.0071,-0.0066,-0.0121,-0.0121,-0.0121,0,0,-0.028,-0.0271,-0.0281,-0.0277,-0.027,-0.0262,-0.0263,-0.0251,-0.0248,-0.0249,-0.0233,-0.0218,-0.0209,-0.0189,-0.018,-0.0192,-0.0145,-0.0195,-0.0196,-0.0131,-0.0126,-0.012,-0.0076,-0.0067,-0.0189,-0.0189,-0.0189,0,-0.0291,-0.0299,-0.0283,-0.0291,-0.029,-0.0271,-0.0281,-0.0275,-0.0265,-0.0257,-0.0256,-0.0226,-0.0213,-0.0192,-0.0201,-0.0197,-0.0158,-0.0184,-0.0133,-0.0127,-0.0121,-0.0077,-0.0066,-0.0191,-0.019,-0.019,-0.019,0,-0.0316,-0.0323,-0.0327,-0.033,-0.0327,-0.0332,-0.0319,-0.0317,-0.0309,-0.0296,-0.0278,-0.0254,-0.0228,-0.0227,-0.0221,-0.0178,-0.0165,-0.015,-0.012,-0.0117,-0.0072,-0.006,-0.0193,-0.0192,-0.0192,-0.0191,0,0,-0.0335,-0.0344,-0.0346,-0.0356,-0.0348,-0.035,-0.0352,-0.0342,-0.0336,-0.0318,-0.0297,-0.0283,-0.0253,-0.024,-0.0218,-0.0164,-0.0102,-0.0142,-0.0138,-0.0093,0.0034,0.0015,0.0027,-0.0072,-0.007,-0.0068,0.0044,0,-0.036,-0.0387,-0.038,-0.0403,-0.0414,-0.0395,-0.0397,-0.0384,-0.0365,-0.0339,-0.0295,-0.0274,-0.0262,-0.0247,-0.0191,-0.0125,-0.0069,-0.0134,0.0021,0.0025,0.0013,0.0041,-0.0061,0.0053,0.0056,0.0058,0.006,0,-0.0384,-0.0401,-0.043,-0.044,-0.0442,-0.0451,-0.0439,-0.0438,-0.0393,-0.0375,-0.0327,-0.0289,-0.022,-0.0207,-0.007,-0.0111,-0.0042,0.0014,0.002,0.0027,0.003,0.0054,0.0082,0.008,0.0079,0.0077,0.0076,0,-0.0408,-0.0432,-0.0458,-0.0463,-0.0471,-0.0478,-0.0478,-0.0449,-0.0446,-0.0388,-0.0367,-0.0278,-0.023,-0.0124,-0.0019,-0.0036,0.0141,0.0136,0.0186,0.0185,0.0183,0.0177,0.0246,0.0246,0.0246,0.0245,0.0245,0,-0.0429,-0.0452,-0.0475,-0.0491,-0.052,-0.0509,-0.0522,-0.0507,-0.0472,-0.0458,-0.0385,-0.0341,-0.0203,-0.0093,0.0,0.0132,0.0164,0.0198,0.0222,0.0162,0.0152,0.0191,0.0183,0.025,0.0249,0.0248,0.0247,0,-0.0447,-0.0462,-0.0499,-0.0523,-0.0535,-0.0555,-0.0567,-0.0569,-0.0531,-0.0503,-0.0484,-0.0371,-0.0226,-0.0086,0.0096,0.0151,0.028,0.032,0.0243,0.0259,0.0272,0.0261,0.0386,0.0386,0.0386,0.0387,0.0387,0,-0.0457,-0.0479,-0.053,-0.0558,-0.0574,-0.0602,-0.062,-0.0604,-0.0597,-0.0522,-0.0503,-0.0362,-0.0274,-0.002,0.0115,0.031,0.0324,0.0377,0.0325,0.028,0.0292,0.028,0.0268,0.0388,0.0388,0.0388,0.0388,0,-0.0478,-0.05,-0.0532,-0.0592,-0.0628,-0.0662,-0.068,-0.0678,-0.0643,-0.0611,-0.0498,-0.0369,-0.0201,-0.0017,0.0142,0.0272,0.0334,0.0382,0.0381,0.0332,0.0284,0.0292,0.0281,0.0389,0.0389,0.0389,0.0389,0,-0.0495,-0.0524,-0.0571,-0.0617,-0.0671,-0.0703,-0.071,-0.0683,-0.0666,-0.0575,-0.0535,-0.0354,-0.024,-0.0035,0.0108,0.0241,0.0254,0.0264,0.0269,0.0269,0.0191,0.0111,0.0198,0,0,0,0,0,-0.0509,-0.0543,-0.0592,-0.0648,-0.07,-0.0726,-0.0741,-0.0733,-0.0696,-0.0621,-0.0574,-0.0414,-0.0188,-0.0081,0.0052,0.0091,0.026,0.0245,0.0269,0.0397,0.0396,0.0321,0,0,0,0,0,0,-0.0522,-0.0571,-0.0593,-0.0661,-0.0701,-0.0754,-0.0764,-0.0739,-0.0681,-0.0621,-0.0485,-0.0413,-0.0176,-0.0255,0.0049,0.0088,0.0111,0.0361,0.0362,0.0398,0.0397,0.0395,0.0318,0,0,0,0,0]}]]